Location: Ago
(8.4667°N, 4.4167°E)
Time: 09:09:38
(UTC+00:00)

COSMOS 2406 - Pass Details

Date: 06 June 2020
Orbit: 843 x 864 km, 71.0° (Epoch: 05 July)

Event Time Altitude Azimuth Distance (km) Brightness Sun altitude
Rises 18:46:41 0° 2° (N) 3,422 6.7 -11.5°
Reaches altitude 10° 18:49:27 10° 13° (NNE) 2,483 5.8 -12.2°
Maximum altitude 18:54:21 29° 73° (ENE) 1,505 4.1 -13.3°
Enters shadow 18:57:11 20° 116° (ESE) 1,888 4.4 -13.9°
